When you browse on this site, cookies collect data to enhance your experience and personalize the content and advertising you see.
Visit our Privacy Policy to learn more. By continuing to use the site, you agree to this use of cookies and data.
  • En España
  • Lista de países
  • Para 7 días
  • Temperatura del agua
  • El tiempo en el mapa
  • Informadores
  • user-avatar
    Iniciar sesión

    Tiempo cada hora Shushmino

    Hoy, 24 Agosto, Sábado

    Tiempo Temperatura Precipitaciones Viento Presión Humedad
    00:00 +14°C° 0 mm 2 mps 749 mmHg 90%
    01:00 +14°C° 0 mm 2 mps 749 mmHg 90%
    02:00 +14°C° 0 mm 2 mps 749 mmHg 91%
    03:00 +13°C° 0 mm 2 mps 749 mmHg 91%
    04:00 +13°C° 0 mm 2 mps 749 mmHg 91%
    05:00 +13°C° 0 mm 2 mps 749 mmHg 91%
    06:00 +15°C° 0 mm 2 mps 749 mmHg 85%
    07:00 +16°C° 0 mm 1 mps 749 mmHg 79%
    08:00 +19°C° 0 mm 1 mps 749 mmHg 73%
    09:00 +21°C° 0 mm 1 mps 749 mmHg 67%
    10:00 +22°C° 0 mm 1 mps 749 mmHg 61%
    11:00 +21°C° 0 mm 0 mps 749 mmHg 55%
    12:00 +24°C° 0 mm 1 mps 749 mmHg 53%
    13:00 +24°C° 0 mm 1 mps 748 mmHg 51%
    14:00 +24°C° 0 mm 2 mps 748 mmHg 48%
    15:00 +24°C° 0 mm 2 mps 748 mmHg 53%
    16:00 +23°C° 0 mm 1 mps 747 mmHg 57%
    17:00 +23°C° 0 mm 1 mps 747 mmHg 62%
    18:00 +21°C° 0 mm 1 mps 747 mmHg 65%
    19:00 +19°C° 0 mm 1 mps 747 mmHg 69%
    20:00 +18°C° 0 mm 1 mps 747 mmHg 72%
    21:00 +16°C° 0 mm 1 mps 747 mmHg 75%
    22:00 +16°C° 0 mm 1 mps 747 mmHg 78%
    23:00 +15°C° 0 mm 2 mps 747 mmHg 81%

    Mañana, 25 Agosto, Domingo

    Tiempo Temperatura Precipitaciones Viento Presión Humedad
    00:00 +15°C° 0 mm 2 mps 747 mmHg 85%
    01:00 +15°C° 0 mm 2 mps 747 mmHg 88%
    02:00 +14°C° 0 mm 2 mps 747 mmHg 91%
    03:00 +14°C° 0 mm 2 mps 747 mmHg 92%
    04:00 +14°C° 0 mm 2 mps 747 mmHg 94%
    05:00 +14°C° 0 mm 2 mps 747 mmHg 95%
    06:00 +14°C° 0 mm 3 mps 747 mmHg 89%
    07:00 +17°C° 0 mm 3 mps 747 mmHg 83%
    08:00 +18°C° 0 mm 3 mps 748 mmHg 77%
    09:00 +19°C° 0 mm 3 mps 748 mmHg 71%
    10:00 +20°C° 0 mm 4 mps 748 mmHg 64%
    11:00 +21°C° 0 mm 4 mps 748 mmHg 58%
    12:00 +21°C° 0 mm 4 mps 748 mmHg 57%
    13:00 +22°C° 0 mm 4 mps 748 mmHg 57%
    14:00 +22°C° 0 mm 4 mps 748 mmHg 57%
    15:00 +21°C° 0 mm 3 mps 748 mmHg 60%
    16:00 +21°C° 0 mm 3 mps 748 mmHg 64%
    17:00 +20°C° 0 mm 3 mps 748 mmHg 68%
    18:00 +19°C° 0 mm 3 mps 749 mmHg 72%
    19:00 +17°C° 0 mm 2 mps 749 mmHg 75%
    20:00 +15°C° 0 mm 2 mps 749 mmHg 79%
    21:00 +15°C° 0 mm 2 mps 750 mmHg 81%
    22:00 +14°C° 0 mm 2 mps 750 mmHg 83%
    23:00 +14°C° 0 mm 2 mps 750 mmHg 85%

    Pasado mañana, 26 Agosto, Lunes

    Tiempo Temperatura Precipitaciones Viento Presión Humedad
    00:00 +13°C° 0 mm 1 mps 750 mmHg 87%
    01:00 +13°C° 0 mm 1 mps 750 mmHg 88%
    02:00 +13°C° 0 mm 1 mps 750 mmHg 89%
    03:00 +12°C° 0 mm 1 mps 750 mmHg 89%
    04:00 +12°C° 0 mm 1 mps 750 mmHg 90%
    05:00 +12°C° 0 mm 1 mps 750 mmHg 90%
    06:00 +14°C° 0 mm 1 mps 751 mmHg 83%
    07:00 +15°C° 0 mm 1 mps 751 mmHg 77%
    08:00 +18°C° 0 mm 1 mps 751 mmHg 70%
    09:00 +19°C° 0 mm 1 mps 751 mmHg 65%
    10:00 +20°C° 0 mm 1 mps 751 mmHg 60%
    11:00 +22°C° 0 mm 1 mps 751 mmHg 55%
    12:00 +22°C° 0 mm 1 mps 750 mmHg 53%
    13:00 +23°C° 0 mm 1 mps 750 mmHg 51%
    14:00 +23°C° 0 mm 1 mps 750 mmHg 49%
    15:00 +23°C° 0 mm 1 mps 749 mmHg 53%
    16:00 +22°C° 0 mm 1 mps 749 mmHg 56%
    17:00 +22°C° 0 mm 1 mps 748 mmHg 60%
    18:00 +20°C° 0 mm 1 mps 748 mmHg 63%
    19:00 +18°C° 0 mm 1 mps 748 mmHg 66%
    20:00 +16°C° 0 mm 1 mps 748 mmHg 69%
    21:00 +15°C° 0 mm 1 mps 748 mmHg 70%
    22:00 +15°C° 0 mm 1 mps 748 mmHg 70%
    23:00 +15°C° 0 mm 2 mps 748 mmHg 71%

    27 Agosto, Martes

    Tiempo Temperatura Precipitaciones Viento Presión Humedad
    00:00 +14°C° 0 mm 2 mps 747 mmHg 73%
    01:00 +14°C° 0 mm 2 mps 747 mmHg 75%
    02:00 +13°C° 0 mm 2 mps 747 mmHg 77%
    03:00 +13°C° 0 mm 2 mps 746 mmHg 79%
    04:00 +13°C° 0 mm 2 mps 746 mmHg 81%
    05:00 +12°C° 0 mm 3 mps 746 mmHg 83%
    06:00 +13°C° 0 mm 3 mps 746 mmHg 81%
    07:00 +16°C° 0 mm 3 mps 745 mmHg 79%
    08:00 +17°C° 0 mm 4 mps 745 mmHg 77%
    09:00 +19°C° 0 mm 4 mps 745 mmHg 72%
    10:00 +20°C° 0 mm 4 mps 744 mmHg 67%
    11:00 +22°C° 0 mm 4 mps 744 mmHg 62%
    12:00 +22°C° 0.2 mm 5 mps 744 mmHg 64%
    13:00 +22°C° 0.2 mm 5 mps 743 mmHg 66%
    14:00 +22°C° 0.2 mm 6 mps 743 mmHg 68%
    15:00 +21°C° 0.2 mm 5 mps 743 mmHg 71%
    16:00 +20°C° 0.2 mm 5 mps 742 mmHg 74%
    17:00 +19°C° 0.2 mm 5 mps 742 mmHg 78%
    18:00 +17°C° 0 mm 5 mps 742 mmHg 79%
    19:00 +16°C° 0 mm 5 mps 743 mmHg 80%
    20:00 +14°C° 0 mm 4 mps 743 mmHg 82%
    21:00 +14°C° 0 mm 4 mps 743 mmHg 83%
    22:00 +13°C° 0 mm 5 mps 744 mmHg 83%
    23:00 +12°C° 0 mm 5 mps 744 mmHg 84%

    28 Agosto, Miércoles

    Tiempo Temperatura Precipitaciones Viento Presión Humedad
    00:00 +11°C° 0 mm 4 mps 745 mmHg 85%
    01:00 +10°C° 0 mm 4 mps 745 mmHg 85%
    02:00 +8°C° 0 mm 4 mps 745 mmHg 86%
    03:00 +8°C° 0 mm 3 mps 746 mmHg 85%
    04:00 +7°C° 0 mm 3 mps 746 mmHg 85%
    05:00 +5°C° 0 mm 3 mps 746 mmHg 85%
    06:00 +6°C° 0 mm 4 mps 746 mmHg 79%
    07:00 +8°C° 0 mm 4 mps 747 mmHg 73%
    08:00 +9°C° 0 mm 5 mps 747 mmHg 67%
    09:00 +10°C° 0 mm 5 mps 747 mmHg 64%
    10:00 +12°C° 0 mm 5 mps 747 mmHg 60%
    11:00 +14°C° 0 mm 6 mps 747 mmHg 56%
    12:00 +14°C° 0 mm 6 mps 746 mmHg 54%
    13:00 +15°C° 0 mm 6 mps 746 mmHg 52%
    14:00 +15°C° 0 mm 6 mps 746 mmHg 50%
    15:00 +15°C° 0 mm 5 mps 746 mmHg 53%
    16:00 +14°C° 0 mm 4 mps 746 mmHg 57%
    17:00 +13°C° 0 mm 4 mps 746 mmHg 60%
    18:00 +12°C° 0 mm 3 mps 746 mmHg 64%
    19:00 +10°C° 0 mm 3 mps 747 mmHg 67%
    20:00 +9°C° 0 mm 3 mps 747 mmHg 71%
    21:00 +8°C° 0 mm 3 mps 747 mmHg 72%
    22:00 +7°C° 0 mm 2 mps 747 mmHg 74%
    23:00 +7°C° 0 mm 2 mps 748 mmHg 75%

    29 Agosto, Jueves

    Tiempo Temperatura Precipitaciones Viento Presión Humedad
    00:00 +6°C° 0 mm 2 mps 748 mmHg 76%
    01:00 +6°C° 0 mm 2 mps 748 mmHg 78%
    02:00 +5°C° 0 mm 2 mps 748 mmHg 79%
    03:00 +5°C° 0 mm 2 mps 748 mmHg 81%
    04:00 +5°C° 0 mm 2 mps 748 mmHg 82%
    05:00 +4°C° 0 mm 2 mps 748 mmHg 83%
    06:00 +5°C° 0 mm 3 mps 748 mmHg 78%
    07:00 +8°C° 0 mm 3 mps 748 mmHg 73%
    08:00 +10°C° 0 mm 4 mps 748 mmHg 67%
    09:00 +11°C° 0 mm 4 mps 748 mmHg 63%
    10:00 +12°C° 0 mm 4 mps 748 mmHg 58%
    11:00 +14°C° 0 mm 4 mps 748 mmHg 54%
    12:00 +14°C° 0 mm 4 mps 747 mmHg 53%
    13:00 +15°C° 0 mm 4 mps 747 mmHg 51%
    14:00 +15°C° 0 mm 4 mps 747 mmHg 50%
    15:00 +15°C° 0 mm 4 mps 747 mmHg 55%
    16:00 +16°C° 0 mm 3 mps 747 mmHg 59%
    17:00 +16°C° 0 mm 3 mps 746 mmHg 63%
    18:00 +14°C° 0 mm 3 mps 747 mmHg 63%
    19:00 +13°C° 0 mm 3 mps 747 mmHg 64%
    20:00 +12°C° 0 mm 4 mps 747 mmHg 64%
    21:00 +10°C° 0 mm 3 mps 747 mmHg 68%
    22:00 +9°C° 0 mm 3 mps 747 mmHg 73%
    23:00 +7°C° 0 mm 2 mps 747 mmHg 78%
    Mostrar más